Home > Weather > Dubai > Past weeks

Flag for United Arab Emirates Past Weather in Dubai, Dubai, United Arab Emirates — Yesterday and Last 2 Weeks

Now
95 °F

Passing clouds.


Feels Like: 103 °F
Forecast: 89 / 100 °F
Wind: 6 mph from East

Location: Dubai International Airport

Current Time: Jul 30, 2016 at 1:41:02 AM

Latest Report: Jul 30, 2016 at 1:00 AM


Visibility: N/A

Pressure: 29.50 "Hg

Humidity: 47%

Dew Point: 72 °F

Location of DubaiLocation

Past Weather in Dubai — Graph

°F

Dubai Temperature Yesterday

Maximum temperature yesterday: 102 °F (at 1:00 PM)
Minimum temperature yesterday: 90 °F (at 2:00 AM)
Average temperature yesterday: 94 °F

High & Low Weather Summary for the Past Weeks

 TemperatureHumidityPressure
High113 °F (Jul 15, 12:00 PM)75% (Jul 15, 3:00 AM)29.62 "Hg (Jul 15, 3:00 AM)
Low90 °F (Jul 28, 4:00 AM)14% (Jul 23, 12:00 AM)29.36 "Hg (Jul 16, 3:00 PM)
Average100 °F40%29.48 "Hg
* Reported Jul 15 12:00 AM — Jul 30 12:00 AM, Dubai, Weather by CustomWeather, © 2016

Note: Actual official high and low records may vary slightly from our data, if they occured in-between our weather recording intervals... More about our weather records

Advertising

Dubai Weather History for the Previous 24 Hours

Scroll right to see more
 ConditionsComfort  
Time TempWeatherWind HumidityBarometerVisibility
12:00 AM
Sat, Jul 30
95 °FPassing clouds.5 mph47%29.53 "HgN/A
11:00 PM
Fri, Jul 29
95 °FPassing clouds.6 mph47%29.53 "HgN/A
10:00 PM95 °FPassing clouds.7 mph50%29.53 "HgN/A
9:00 PM95 °FPassing clouds.7 mph44%29.53 "HgN/A
8:00 PM95 °FPassing clouds.7 mph50%29.50 "HgN/A
7:00 PM95 °FClear.9 mph50%29.50 "Hg5 mi
6:00 PM95 °FClear.13 mph53%29.50 "Hg5 mi
5:00 PM97 °FClear.15 mph50%29.50 "Hg5 mi
4:00 PM99 °FClear.17 mph44%29.50 "Hg4 mi
3:00 PM100 °FClear.15 mph40%29.53 "Hg4 mi
2:00 PM99 °FClear.14 mph42%29.53 "Hg4 mi
1:00 PM102 °FSunny.3 mph33%29.56 "Hg10 mi
12:00 PM100 °FSunny.5 mph35%29.56 "Hg10 mi
11:00 AM99 °FClear.2 mph37%29.59 "Hg4 mi
10:00 AM95 °FClear.8 mph41%29.62 "Hg4 mi
9:00 AM93 °FClear.8 mph44%29.62 "Hg4 mi
8:00 AM91 °FPassing clouds.7 mph49%29.59 "HgN/A
7:00 AM90 °FSunny.12 mph55%29.59 "Hg10 mi
6:00 AM90 °FPassing clouds.9 mph55%29.56 "HgN/A
5:00 AM90 °FClear.12 mph55%29.53 "Hg10 mi
4:00 AM90 °FClear.15 mph55%29.53 "Hg10 mi
3:00 AM90 °FPassing clouds.12 mph52%29.53 "HgN/A
2:00 AM90 °FClear.13 mph55%29.53 "Hg10 mi
1:00 AM91 °FClear.14 mph52%29.53 "Hg10 mi
Weather by CustomWeather, © 2016

See weather overviewHow to use our weather pages